Location: Burgberg
(50.1428°N, 11.0671°E)
Time: 02:33:02
(UTC+00:00)

STARLINK-1022 - Pass Details

Date: 26 January 2020
Orbit: 548 x 551 km, 53.0° (Epoch: 22 February)

Event Time Altitude Azimuth Distance (km) Brightness Sun altitude
Rises 06:07:05 0° 231° (SW) 2,710 6.8 -8.3°
Reaches altitude 10° 06:09:20 10° 227° (SW) 1,820 6.0 -8.0°
Maximum altitude 06:13:23 56° 150° (SSE) 658 4.3 -7.4°
Drops below altitude 10° 06:17:27 10° 72° (ENE) 1,830 7.1 -6.8°
Sets 06:19:43 0° 68° (ENE) 2,727 7.9 -6.5°
